TimeCDT,TemperatureF,Dew PointF,Humidity,Sea Level PressureIn,VisibilityMPH,Wind Direction,Wind SpeedMPH,Gust SpeedMPH,PrecipitationIn,Events,Conditions,WindDirDegrees,DateUTC
12:15 AM,73.4,68.0,83,30.21,10.0,Calm,Calm,-,N/A,,Clear,0,2013-07-16 05:15:00
12:35 AM,70.9,68.0,91,30.21,10.0,Calm,Calm,-,N/A,,Clear,0,2013-07-16 05:35:00
12:55 AM,72.3,68.0,86,30.21,10.0,Calm,Calm,-,N/A,,Clear,0,2013-07-16 05:55:00
1:15 AM,71.6,68.0,88,30.21,10.0,Calm,Calm,-,N/A,,Scattered Clouds,0,2013-07-16 06:15:00
1:35 AM,71.2,67.5,88,30.21,10.0,Calm,Calm,-,N/A,,Clear,0,2013-07-16 06:35:00
1:55 AM,70.7,67.8,91,30.21,10.0,SE,3.5,-,N/A,,Clear,130,2013-07-16 06:55:00
2:15 AM,71.2,68.0,89,30.21,10.0,SE,4.6,-,N/A,,Scattered Clouds,130,2013-07-16 07:15:00
2:35 AM,72.1,68.2,87,30.22,10.0,ESE,3.5,-,N/A,,Mostly Cloudy,120,2013-07-16 07:35:00
2:55 AM,72.9,68.4,86,30.21,10.0,Calm,Calm,-,N/A,,Overcast,0,2013-07-16 07:55:00
3:15 AM,71.8,68.2,88,30.21,10.0,ESE,4.6,-,N/A,,Scattered Clouds,110,2013-07-16 08:15:00
3:35 AM,71.1,67.8,89,30.21,10.0,SE,4.6,-,N/A,,Clear,140,2013-07-16 08:35:00
3:55 AM,71.1,67.5,88,30.21,10.0,ESE,3.5,-,N/A,,Clear,120,2013-07-16 08:55:00
4:15 AM,70.2,67.3,91,30.21,10.0,SSE,3.5,-,N/A,,Clear,160,2013-07-16 09:15:00
4:35 AM,68.9,66.2,91,30.21,10.0,South,4.6,-,N/A,,Clear,190,2013-07-16 09:35:00
4:55 AM,68.5,66.4,93,30.21,10.0,Calm,Calm,-,N/A,,Clear,0,2013-07-16 09:55:00
5:15 AM,68.9,66.6,92,30.22,10.0,Calm,Calm,-,N/A,,Clear,0,2013-07-16 10:15:00
5:35 AM,65.8,63.7,93,30.22,10.0,Calm,Calm,-,N/A,,Clear,0,2013-07-16 10:35:00
5:55 AM,67.3,65.7,95,30.22,10.0,Calm,Calm,-,N/A,,Clear,0,2013-07-16 10:55:00
6:15 AM,67.1,65.8,96,30.23,7.0,Calm,Calm,-,N/A,,Clear,0,2013-07-16 11:15:00
6:35 AM,64.4,62.8,94,30.23,10.0,Calm,Calm,-,N/A,,Clear,0,2013-07-16 11:35:00
6:55 AM,67.5,65.5,93,30.23,10.0,Calm,Calm,-,N/A,,Clear,0,2013-07-16 11:55:00
7:15 AM,69.1,66.6,92,30.23,10.0,Calm,Calm,-,N/A,,Clear,0,2013-07-16 12:15:00
7:35 AM,70.2,66.9,89,30.24,10.0,Calm,Calm,-,N/A,,Clear,0,2013-07-16 12:35:00
7:55 AM,71.2,67.5,88,30.25,7.0,Calm,Calm,-,N/A,,Clear,0,2013-07-16 12:55:00
8:15 AM,74.3,64.4,71,30.25,10.0,South,4.6,-,N/A,,Clear,180,2013-07-16 13:15:00
8:35 AM,75.2,65.3,71,30.26,10.0,SSW,6.9,-,N/A,,Clear,200,2013-07-16 13:35:00
8:55 AM,76.1,65.7,70,30.27,10.0,SSW,5.8,-,N/A,,Clear,210,2013-07-16 13:55:00
9:15 AM,76.8,65.5,68,30.27,10.0,South,5.8,-,N/A,,Clear,170,2013-07-16 14:15:00
9:35 AM,77.7,64.9,65,30.28,10.0,SSW,4.6,-,N/A,,Clear,200,2013-07-16 14:35:00
9:55 AM,78.4,63.7,60,30.28,10.0,South,4.6,-,N/A,,Clear,190,2013-07-16 14:55:00
10:15 AM,80.1,63.7,57,30.28,10.0,SW,4.6,-,N/A,,Clear,220,2013-07-16 15:15:00
10:55 AM,81.7,61.3,50,30.28,10.0,South,5.8,-,N/A,,Clear,180,2013-07-16 15:55:00
11:15 AM,82.4,61.2,48,30.28,10.0,WSW,8.1,-,N/A,,Clear,240,2013-07-16 16:15:00
11:35 AM,83.1,61.7,48,30.28,10.0,SSE,8.1,-,N/A,,Clear,160,2013-07-16 16:35:00
11:55 AM,84.4,61.3,46,30.28,10.0,SW,6.9,16.1,N/A,,Clear,220,2013-07-16 16:55:00
12:15 PM,85.1,61.0,44,30.28,10.0,SSW,5.8,-,N/A,,Clear,210,2013-07-16 17:15:00
12:35 PM,86.0,60.8,43,30.27,10.0,South,10.4,-,N/A,,Clear,180,2013-07-16 17:35:00
12:55 PM,86.9,60.6,41,30.27,10.0,South,8.1,-,N/A,,Clear,190,2013-07-16 17:55:00
1:15 PM,87.1,60.1,40,30.27,10.0,South,10.4,-,N/A,,Clear,170,2013-07-16 18:15:00
1:35 PM,87.6,60.1,39,30.27,10.0,Calm,Calm,-,N/A,,Clear,0,2013-07-16 18:35:00
1:55 PM,87.8,60.6,40,30.26,10.0,South,4.6,-,N/A,,Clear,170,2013-07-16 18:55:00
2:15 PM,88.2,60.8,40,30.25,10.0,SW,9.2,-,N/A,,Scattered Clouds,230,2013-07-16 19:15:00
2:35 PM,89.2,60.8,38,30.24,10.0,SW,12.7,-,N/A,,Scattered Clouds,220,2013-07-16 19:35:00
3:55 PM,89.6,60.3,37,30.24,10.0,South,8.1,-,N/A,,Scattered Clouds,170,2013-07-16 20:55:00
4:15 PM,90.5,60.1,36,30.23,10.0,South,6.9,-,N/A,,Clear,190,2013-07-16 21:15:00
4:35 PM,91.0,60.3,36,30.23,10.0,South,10.4,-,N/A,,Clear,190,2013-07-16 21:35:00
4:55 PM,89.2,60.1,37,30.23,10.0,South,4.6,-,N/A,,Clear,170,2013-07-16 21:55:00
5:15 PM,90.3,60.3,36,30.23,10.0,South,11.5,-,N/A,,Scattered Clouds,180,2013-07-16 22:15:00
5:35 PM,90.1,59.7,36,30.22,10.0,South,5.8,-,N/A,,Clear,180,2013-07-16 22:35:00
5:55 PM,90.0,59.9,36,30.22,10.0,SSW,8.1,-,N/A,,Scattered Clouds,200,2013-07-16 22:55:00
6:15 PM,89.6,59.9,37,30.22,10.0,SSW,9.2,-,N/A,,Scattered Clouds,200,2013-07-16 23:15:00
6:35 PM,90.7,60.6,36,30.22,10.0,South,11.5,-,N/A,,Clear,170,2013-07-16 23:35:00
6:55 PM,89.8,61.0,38,30.22,10.0,South,9.2,-,N/A,,Clear,190,2013-07-16 23:55:00
7:15 PM,89.4,61.3,39,30.23,10.0,SSW,8.1,-,N/A,,Clear,200,2013-07-17 00:15:00
7:35 PM,89.1,61.2,39,30.23,10.0,SSW,8.1,-,N/A,,Clear,200,2013-07-17 00:35:00
7:55 PM,88.5,61.9,41,30.23,10.0,South,4.6,-,N/A,,Clear,180,2013-07-17 00:55:00
8:15 PM,87.3,62.8,44,30.23,10.0,South,4.6,-,N/A,,Clear,190,2013-07-17 01:15:00
8:35 PM,85.5,63.5,48,30.23,10.0,South,4.6,-,N/A,,Clear,190,2013-07-17 01:35:00
8:55 PM,84.9,63.5,48,30.23,10.0,South,4.6,-,N/A,,Clear,190,2013-07-17 01:55:00
9:15 PM,84.0,63.3,50,30.24,10.0,Calm,Calm,-,N/A,,Clear,0,2013-07-17 02:15:00
9:35 PM,80.6,65.3,59,30.24,10.0,ESE,3.5,-,N/A,,Clear,120,2013-07-17 02:35:00
9:55 PM,81.0,65.1,58,30.25,10.0,Calm,Calm,-,N/A,,Clear,0,2013-07-17 02:55:00
10:15 PM,80.8,64.8,58,30.25,10.0,Calm,Calm,-,N/A,,Clear,0,2013-07-17 03:15:00
10:35 PM,78.4,65.3,64,30.26,10.0,SE,4.6,-,N/A,,Clear,130,2013-07-17 03:35:00
10:55 PM,78.8,65.3,63,30.26,10.0,ESE,3.5,-,N/A,,Clear,120,2013-07-17 03:55:00
11:15 PM,78.3,65.7,65,30.27,10.0,SE,4.6,-,N/A,,Clear,130,2013-07-17 04:15:00
11:35 PM,78.3,66.9,68,30.27,10.0,ESE,4.6,-,N/A,,Clear,120,2013-07-17 04:35:00
11:55 PM,77.5,67.6,71,30.27,10.0,Calm,Calm,-,N/A,,Clear,0,2013-07-17 04:55:00